User: anonymous   Login
Location: Unspecified
(0.0000°N, 0.0000°E)
Time: 18:10:51
(UTC+00:00)
Language:

PROBA 2 - Orbit

View from above orbital plane
View from above orbital plane
View from above satellite
View from above satellite

Ground track
Ground track

The orbit data is extracted from the following two-line orbital elements,

1 36037U 09059B   14297.58713378  .00000370  00000-0  10102-3 0  5530
2 36037 098.2805 128.7307 0014357 073.9532 322.9008 14.52668493263788
Epoch (UTC): 24 October 2014 14:05:28
Eccentricity: 0.0014357
inclination: 98.2805°
perigee height: 707 km
apogee height: 727 km
right ascension of ascending node: 128.7307°
argument of perigee: 73.9532°
revolutions per day: 14.52668493
mean anomaly at epoch: 322.9008°
orbit number at epoch: 26378

The dashed part of the orbit path shows where the satellite is in the earth's shadow,  

DLR